Location: Kirkcaldy
(50.3333°N, 113.2333°W)
Time: 20:35:41
(UTC+00:00)

Envisat - Pass Details

Date: 17 June 2023
Orbit: 763 x 764 km, 98.2° (Epoch: 22 September)

Event Time Altitude Azimuth Distance (km) Brightness Sun altitude
Rises 10:21:11 0° 25° (NNE) 3,243 8.2 -7.5°
Reaches altitude 10° 10:24:01 10° 40° (NE) 2,311 7.3 -7.3°
Maximum altitude 10:27:56 22° 91° (E) 1,630 5.2 -6.9°
Drops below altitude 10° 10:31:49 10° 141° (SE) 2,299 5.4 -6.5°
Sets 10:34:37 0° 157° (SSE) 3,220 6.0 -6.2°
